Change the Weather History Date:

Friday, December 27, 2013

  Actual Average (KEGE) Record (KEGE)
Temperature  
Mean Temperature 4 °F -  
Max Temperature 17 °F 31 °F 54 °F (1980)
Min Temperature -9 °F 3 °F -27 °F (1962)
Degree Days  
Heating Degree Days 61    
Moisture  
Dew Point -7 °F    
Average Humidity 72    
Maximum Humidity 85    
Minimum Humidity 53    
Precipitation  
Precipitation 0.00 in - - ()
Sea Level Pressure  
Sea Level Pressure 30.47 in    
Wind  
Wind Speed 0 mph (SE)    
Max Wind Speed 4 mph    
Max Gust Speed -    
Visibility 10 miles    
Events      
Averages and records for this station are not official NWS values.
T = Trace of Precipitation, MM = Missing Value Source: NWS Daily Summary

Daily Weather History Graph

Daily Weather History Graph

Search for Another Location

Airport or City:

Trip Planner

Search our weather history database for the weather conditions in past years. The results will help you decide how hot, cold, wet, or windy it might be!

Date:

Astronomy

Dec. 27, 2013 Rise Set
Actual Time 7:26 AM MST 4:47 PM MST
Civil Twilight 6:55 AM MST 5:17 PM MST
Nautical Twilight 6:21 AM MST 5:51 PM MST
Astronomical Twilight 5:48 AM MST 6:24 PM MST
Moon 2:01 AM MST (12/27) 12:59 PM MST (12/27)
Length of Visible Light 10h 21m
Length of Day
9h 20m
Waning Crescent, 28% of the Moon is Illuminated
Dec 27
Waning Crescent
Jan 1
New
Jan 7
First Quarter
Jan 15
Full
Jan 23
Last Quarter

Hourly Weather History & Observations

Time (MST) Temp. Windchill Dew Point Humidity Pressure Visibility Wind Dir Wind Speed Gust Speed Precip Events Conditions
12:15 AM -7.6 °F - -13.0 °F 77% 30.53 in 10.0 mi Calm Calm - N/A   Clear
12:33 AM -7.6 °F - -13.0 °F 77% 30.52 in 7.0 mi Calm Calm - N/A   Clear
12:51 AM -7.6 °F - -13.0 °F 77% 30.52 in 7.0 mi Calm Calm - N/A   Clear
1:15 AM -7.6 °F - -13.0 °F 77% 30.52 in 10.0 mi Calm Calm - N/A   Clear
1:35 AM -7.6 °F - -13.0 °F 77% 30.53 in 10.0 mi Calm Calm - N/A   Clear
1:55 AM -7.6 °F - -13.0 °F 77% 30.53 in 10.0 mi Calm Calm - N/A   Clear
2:15 AM -7.6 °F - -13.0 °F 77% 30.54 in 10.0 mi Calm Calm - N/A   Clear
2:35 AM -9.4 °F - -14.8 °F 77% 30.54 in 10.0 mi Calm Calm - N/A   Clear
2:55 AM -7.6 °F - -13.0 °F 77% 30.55 in 10.0 mi Calm Calm - N/A   Clear
3:15 AM -7.6 °F - -13.0 °F 77% 30.55 in 10.0 mi Calm Calm - N/A   Clear
3:35 AM -7.6 °F - -14.8 °F 71% 30.55 in 10.0 mi Calm Calm - N/A   Clear
3:55 AM -9.4 °F - -14.8 °F 77% 30.55 in 10.0 mi Calm Calm - N/A   Clear
4:15 AM -9.4 °F - -14.8 °F 77% 30.54 in 10.0 mi Calm Calm - N/A   Clear
4:34 AM -9.4 °F - -14.8 °F 77% 30.54 in 10.0 mi Calm Calm - N/A   Clear
4:55 AM -9.4 °F - -16.6 °F 71% 30.54 in 10.0 mi Calm Calm - N/A   Clear
5:15 AM -9.4 °F - -14.8 °F 77% 30.55 in 10.0 mi Calm Calm - N/A   Clear
5:35 AM -9.4 °F - -16.6 °F 71% 30.55 in 10.0 mi Calm Calm - N/A   Clear
5:55 AM -9.4 °F - -14.8 °F 77% 30.55 in 10.0 mi Calm Calm - N/A   Clear
6:14 AM -9.4 °F - -16.6 °F 71% 30.55 in 10.0 mi Calm Calm - N/A   Clear
6:35 AM -9.4 °F - -14.8 °F 77% 30.56 in 10.0 mi Calm Calm - N/A   Clear
6:54 AM -9.4 °F - -14.8 °F 77% 30.56 in 10.0 mi Calm Calm - N/A   Clear
7:15 AM -7.6 °F - -14.8 °F 71% 30.56 in 10.0 mi Calm Calm - N/A   Clear
7:35 AM -9.4 °F - -14.8 °F 77% 30.56 in 10.0 mi Calm Calm - N/A   Clear
7:55 AM -7.6 °F - -13.0 °F 77% 30.57 in 10.0 mi Calm Calm - N/A   Clear
8:15 AM -7.6 °F - -13.0 °F 77% 30.57 in 7.0 mi Calm Calm - N/A   Clear
8:34 AM -7.6 °F - -14.8 °F 71% 30.57 in 10.0 mi Calm Calm - N/A   Clear
8:55 AM -4.0 °F - -11.2 °F 71% 30.57 in 10.0 mi Calm Calm - N/A   Clear
9:15 AM -4.0 °F - -9.4 °F 78% 30.57 in 10.0 mi Calm Calm - N/A   Clear
9:35 AM -2.2 °F - -9.4 °F 71% 30.57 in 10.0 mi Calm Calm - N/A   Clear
9:55 AM -0.4 °F - -7.6 °F 72% 30.58 in 10.0 mi Calm Calm - N/A   Clear
10:15 AM -0.4 °F - -7.6 °F 72% 30.58 in 10.0 mi Calm Calm - N/A   Clear
10:35 AM 1.4 °F - -5.8 °F 72% 30.57 in 10.0 mi Calm Calm - N/A   Clear
10:54 AM 3.2 °F - -5.8 °F 66% 30.56 in 10.0 mi Calm Calm - N/A   Clear
11:14 AM 5.0 °F - -5.8 °F 61% 30.55 in 10.0 mi Calm Calm - N/A   Clear
11:35 AM 6.8 °F - -4.0 °F 61% 30.53 in 10.0 mi Calm Calm - N/A   Clear
11:55 AM 8.6 °F - -4.0 °F 57% 30.52 in 10.0 mi Calm Calm - N/A   Clear
12:15 PM 10.4 °F - -0.4 °F 62% 30.51 in 10.0 mi Calm Calm - N/A   Clear
12:35 PM 10.4 °F - -0.4 °F 62% 30.49 in 10.0 mi Calm Calm - N/A   Clear
12:55 PM 12.2 °F - -0.4 °F 57% 30.48 in 10.0 mi Calm Calm - N/A   Clear
1:15 PM 12.2 °F - 1.4 °F 62% 30.47 in 10.0 mi Calm Calm - N/A   Clear
1:35 PM 14.0 °F - 3.2 °F 62% 30.46 in 10.0 mi Calm Calm - N/A   Clear
1:55 PM 14.0 °F - 1.4 °F 57% 30.45 in 10.0 mi Calm Calm - N/A   Clear
2:14 PM 15.8 °F - 1.4 °F 53% 30.44 in 10.0 mi Calm Calm - N/A   Clear
2:35 PM 14.0 °F - 3.2 °F 62% 30.43 in 10.0 mi Calm Calm - N/A   Clear
2:55 PM 14.0 °F - 3.2 °F 62% 30.42 in 10.0 mi Calm Calm - N/A   Clear
3:15 PM 15.8 °F - 3.2 °F 58% 30.42 in 10.0 mi Calm Calm - N/A   Clear
3:35 PM 17.6 °F - 3.2 °F 53% 30.41 in 10.0 mi Calm Calm - N/A   Clear
3:55 PM 14.0 °F - 3.2 °F 62% 30.41 in 10.0 mi Calm Calm - N/A   Clear
4:15 PM 14.0 °F - 3.2 °F 62% 30.41 in 10.0 mi Calm Calm - N/A   Clear
4:35 PM 12.2 °F - 3.2 °F 67% 30.41 in 10.0 mi Calm Calm - N/A   Clear
4:54 PM 12.2 °F - 3.2 °F 67% 30.40 in 10.0 mi Calm Calm - N/A   Clear
5:15 PM 10.4 °F - 1.4 °F 67% 30.40 in 10.0 mi Calm Calm - N/A   Clear
5:35 PM 6.8 °F -0.1 °F -0.4 °F 72% 30.39 in 10.0 mi SE 3.5 mph - N/A   Clear
5:55 PM 5.0 °F - -0.4 °F 78% 30.39 in 10.0 mi Calm Calm - N/A   Clear
6:15 PM 5.0 °F - -0.4 °F 78% 30.39 in 10.0 mi Calm Calm - N/A   Clear
6:35 PM 5.0 °F - -2.2 °F 72% 30.39 in 10.0 mi Calm Calm - N/A   Clear
6:55 PM 5.0 °F - -0.4 °F 78% 30.39 in 10.0 mi Calm Calm - N/A   Clear
7:15 PM 3.2 °F - -2.2 °F 78% 30.39 in 10.0 mi Calm Calm - N/A   Clear
7:35 PM 1.4 °F - -4.0 °F 78% 30.38 in 10.0 mi Calm Calm - N/A   Clear
7:55 PM 1.4 °F - -4.0 °F 78% 30.38 in 10.0 mi Calm Calm - N/A   Clear
8:15 PM -0.4 °F - -5.8 °F 78% 30.37 in 10.0 mi Calm Calm - N/A   Clear
8:35 PM -0.4 °F - -5.8 °F 78% 30.37 in 10.0 mi Calm Calm - N/A   Clear
8:55 PM -0.4 °F - -4.0 °F 85% 30.36 in 10.0 mi Calm Calm - N/A   Clear
9:14 PM -0.4 °F - -5.8 °F 78% 30.36 in 10.0 mi Calm Calm - N/A   Clear
9:34 PM -0.4 °F - -5.8 °F 78% 30.36 in 7.0 mi Calm Calm - N/A   Clear
9:55 PM -2.2 °F - -7.6 °F 78% 30.35 in 10.0 mi Calm Calm - N/A   Clear
10:15 PM -2.2 °F - -5.8 °F 85% 30.34 in 10.0 mi Calm Calm - N/A   Clear
10:35 PM -2.2 °F - -7.6 °F 78% 30.35 in 10.0 mi Calm Calm - N/A   Clear
10:55 PM -4.0 °F - -7.6 °F 85% 30.34 in 10.0 mi Calm Calm - N/A   Clear
11:14 PM -2.2 °F - -7.6 °F 78% 30.34 in 7.0 mi Calm Calm - N/A   Clear
11:35 PM -4.0 °F - -9.4 °F 78% 30.33 in 10.0 mi Calm Calm - N/A   Clear
11:55 PM -4.0 °F - -7.6 °F 85% 30.33 in 10.0 mi Calm Calm - N/A   Clear